User: anonymous   Login
Location: Unspecified
(0.0000°N, 0.0000°E)
Time: 08:38:25
(UTC+02:00)
Language:

Milstar 3 - Orbit

View from above orbital plane
View from above orbital plane
View from above satellite
View from above satellite

Ground track
Ground track

The orbit data is extracted from the following two-line orbital elements,

1 25724U 99023A   16218.33801076 0.00000000  00000-0  00000-0 0    02
2 25724  28.2236 322.0002 2134299 167.8598 192.1397  9.37447173    05
Epoch (UTC): 05 August 2016 08:06:44
Eccentricity: 0.2134299
inclination: 28.2236°
perigee height: 1095 km
apogee height: 5150 km
right ascension of ascending node: 322.0002°
argument of perigee: 167.8598°
revolutions per day: 9.37447173
mean anomaly at epoch: 192.1397°
orbit number at epoch: 0

The dashed part of the orbit path shows where the satellite is in the earth's shadow,  

DLR